#timestamp,LO_Frequency,Hit 
1500170415.3,286046998.9,N
1500170435.2,286047001.0,N
1500170455.9,286047000.4,N
1500170475.7,286047000.3,N
1500170495.6,286046999.2,N
1500170515.4,286046998.7,N
1500170535.2,286046998.5,N
1500170555.1,286046998.9,N
1500170556.0,286046998.9,N
1500170575.8,286046998.8,N
1500170595.7,286046999.3,N
1500170615.5,286046999.1,N
1500170635.3,286046998.3,N
1500170655.2,286046998.4,N
1500170675.0,286047000.8,N
1500170675.9,286047000.8,N
1500170695.7,286046999.0,N
1500170715.6,286046999.3,N
1500170735.4,286046999.6,N
1500170755.3,286046998.8,N
1500170775.1,286046998.8,N
1500170776.0,286046998.8,N
1500170795.8,286046999.0,N
1500170815.7,286046998.7,N
1500170835.5,286047001.1,N
1500170855.3,286046999.4,N
1500170875.2,286047000.4,N
1500170895.0,286047000.6,N
1500170895.9,286047000.6,N
1500170915.8,286047000.3,N
1500170935.6,286047000.9,N
1500170955.4,286047000.6,N
1500170975.3,286047002.3,N
1500170995.1,286047000.2,N
1500171015.9,286046999.9,N
1500171035.7,286047000.0,N
1500171055.5,286047002.8,N
1500171075.4,286047000.6,N
1500171095.2,286046999.9,N
1500171115.1,286046999.7,N
1500171116.0,286046999.7,N
1500171135.8,286047002.5,N
1500171155.6,286047000.1,N
1500171175.5,286047001.5,N
1500171195.3,286047000.2,N
1500171215.1,286047001.2,N
1500171235.9,286047000.3,N
1500171255.7,286047002.3,N
1500171275.6,286047002.0,N
1500171295.4,286047004.2,N
1500171315.2,286047004.0,N
1500171335.1,286047003.3,N
1500171336.0,286047003.3,N
1500171355.8,286047004.3,N
1500171375.7,286047001.9,N
1500171395.5,286047001.3,N
1500171415.3,286047002.5,N
1500171435.2,286047001.9,N
1500171455.0,286047002.0,N
1500171455.9,286047002.0,N
1500171475.7,286047002.1,N
1500171495.6,286047000.9,N
1500171515.4,286047000.0,N
1500171535.3,286046999.8,N
1500171555.1,286047001.2,N
1500171556.0,286047001.2,N
1500171575.8,286047000.4,N
1500171595.7,286047000.0,N
1500171615.5,286047000.9,N
1500171635.3,286046999.7,N
1500171655.2,286047000.4,N
1500171675.0,286047002.1,N
1500171675.9,286047002.1,N
1500171695.8,286047001.6,N
1500171715.6,286047002.5,N
1500171735.4,286047002.5,N
1500171755.3,286047000.0,N
1500171775.1,286047000.1,N
1500171795.8,286047002.4,N
1500171815.7,286047002.1,N
1500171835.5,286047002.0,N
1500171855.4,286047004.3,N
1500171875.2,286047001.3,N
1500171895.0,286047003.8,N
1500171895.9,286047003.8,N
1500171915.8,286047003.8,N
1500171935.6,286047001.3,N
1500171955.4,286047002.7,N
1500171975.3,286047002.3,N
1500171995.1,286047003.7,N
1500172015.9,286047001.3,N
1500172035.7,286047001.4,N
1500172055.5,286047002.3,N
1500172075.4,286047002.3,N
1500172095.2,286046999.8,N
1500172115.0,286047003.5,N
1500172115.9,286047011.9,N
1500172135.8,286047005.9,N
1500172155.6,286047001.3,N
1500172175.5,286047001.5,N
1500172195.3,286047001.4,N
1500172215.1,286047001.9,N
1500172235.9,286047001.3,N
1500172255.7,286047002.1,N
1500172275.5,286047002.4,N
1500172295.4,286047001.6,N
1500172315.2,286047003.8,N
1500172335.1,286047002.9,N
1500172336.0,286047002.9,N
1500172355.8,286047005.1,N
1500172375.6,286047005.1,N
1500172395.5,286047002.0,N
1500172415.3,286047004.2,N
1500172435.1,286047002.0,N
1500172455.9,286047002.1,N
1500172475.7,286047004.2,N
1500172495.6,286047003.9,N
1500172515.4,286047002.3,N
1500172535.2,286047002.3,N
1500172555.1,286047001.8,N
1500172556.0,286047001.8,N
1500172575.8,286047005.9,N
1500172595.6,286047005.9,N
1500172615.5,286047004.9,N
1500172635.3,286047005.5,N
1500172655.2,286047003.9,N
1500172675.9,286047003.4,N
1500172695.7,286047003.6,N
1500172715.6,286047004.3,N
1500172735.4,286047004.2,N
1500172755.2,286047004.2,N
1500172775.1,286047004.0,N
1500172776.0,286047004.0,N
1500172795.8,286047001.7,N
1500172815.7,286047003.6,N
1500172835.5,286047001.5,N
1500172855.3,286047002.2,N
1500172875.2,286047001.3,N
1500172895.9,286047004.1,N
1500172915.7,286047001.3,N
1500172935.6,286047003.8,N
1500172955.4,286047001.7,N
1500172975.2,286047001.4,N
1500172995.1,286047001.6,N
1500172996.0,286047001.6,N
1500173015.8,286047004.3,N
1500173035.7,286047004.4,N
1500173055.5,286047001.3,N
1500173075.3,286047004.1,N
1500173095.2,286047003.4,N
1500173115.0,286047003.5,N
1500173115.9,286047003.5,N
1500173135.7,286047005.8,N
1500173155.6,286047005.3,N
1500173175.4,286047003.8,N
1500173195.3,286047001.4,N
1500173215.1,286047001.4,N
1500173216.0,286047001.4,N
1500173235.8,286047003.5,N
1500173255.7,286047003.7,N
1500173275.5,286047003.3,N
1500173295.3,286047003.0,N
1500173315.2,286047006.0,N
1500173335.0,286047005.9,N
1500173335.9,286047005.9,N
1500173355.8,286047003.1,N
1500173375.6,286047005.2,N
1500173395.4,286047003.0,N
1500173415.3,286047002.9,N
1500173435.1,286047005.9,N
1500173455.8,286047005.1,N
1500173475.7,286047005.4,N
1500173495.5,286047005.5,N
1500173515.4,286047005.7,N
1500173535.2,286047003.1,N
1500173555.0,286047005.5,N
1500173555.9,286047005.5,N
1500173575.8,286047005.4,N
1500173595.6,286047004.5,N
1500173615.5,286047004.6,N
1500173635.3,286047005.2,N
1500173655.1,286047003.1,N
1500173675.9,286047006.0,N
1500173695.7,286047004.8,N
1500173715.5,286047001.8,N
1500173735.4,286047004.5,N
1500173755.2,286047003.4,N
1500173775.0,286047003.5,N
1500173776.0,286047003.5,N
1500173795.8,286047004.0,N
1500173815.6,286047003.6,N
1500173835.5,286047005.8,N
1500173855.3,286047005.0,N
1500173875.1,286047005.8,N
1500173895.9,286047003.3,N
1500173915.7,286047006.0,N
1500173935.6,286047006.0,N
1500173955.4,286047005.6,N
1500173975.2,286047003.3,N
1500173995.1,286047003.1,N
1500173996.0,286047003.1,N
